Date String (YYYY-MM-DD hh:mm:ss) UTC,Instrument flags,Ambient pressure (hPa),Sample flow (lpm),Bypass flow (lpm),Sample temperature (°C),Ambient temperature (°C),ASC tube jacket temperature (°C),LED temperature (°C),Box temperature (°C),Sample RH (%),Span deviation,Mass concentration (μg/m³),Mass concentration (μg/m³),Mass concentration (μg/m³)
DateTimeUTC,F1_M11,P_M11,Q1_M11,Q2_M11,T1_M11,T2_M11,T3_M11,T4_M11,T5_M11,U1_M11,ZSPAN_M11,X0_M11,X2_M11,X1_M11
2021-08-31 09:00:00,,0823.3,5.00,0.00,29.6,27.8,00.0,38.7,31.2,11.4,0002.9,0027.23,0021.66,0020.91
2021-08-31 09:01:00,,0823.3,5.00,0.00,29.6,28.0,00.0,38.7,31.3,11.4,0002.8,0027.31,0021.63,0020.86
2021-08-31 09:02:00,,0823.3,5.00,0.00,29.6,28.1,00.0,38.7,31.3,11.4,0002.8,0027.14,0021.55,0020.84
2021-08-31 09:03:00,,0823.3,5.01,0.00,29.6,28.3,00.0,38.7,31.3,11.3,0002.8,0027.10,0021.50,0020.80
2021-08-31 09:04:00,,0823.2,5.00,0.00,29.6,28.4,00.0,38.7,31.4,11.3,0002.8,0026.81,0021.53,0020.77
2021-08-31 09:05:00,,0823.3,5.00,0.00,29.7,28.4,00.0,38.7,31.4,11.3,0002.9,0026.75,0021.58,0020.80
2021-08-31 09:06:00,,0823.3,4.99,0.00,29.7,28.5,00.0,38.7,31.5,11.3,0002.9,0026.81,0021.63,0020.83
2021-08-31 09:07:00,,0823.3,5.00,0.00,29.7,28.6,00.0,38.7,31.5,11.3,0002.7,0026.75,0021.69,0020.91
2021-08-31 09:08:00,,0823.4,5.01,0.00,29.7,28.6,00.0,38.8,31.5,11.3,0002.5,0026.81,0021.75,0020.97
2021-08-31 09:09:00,,0823.4,5.00,0.00,29.8,28.7,00.0,38.8,31.5,11.3,0002.4,0027.01,0021.85,0021.07
2021-08-31 09:10:00,,0823.4,5.00,0.00,29.8,28.7,00.0,38.8,31.5,11.3,0002.2,0027.61,0021.96,0021.17
2021-08-31 09:11:00,,0823.4,4.99,0.00,29.8,28.8,00.0,38.8,31.6,11.3,0002.4,0028.01,0022.07,0021.28
2021-08-31 09:12:00,,0823.4,5.01,0.00,29.8,28.8,00.0,38.8,31.6,11.3,0002.4,0027.99,0022.13,0021.35
2021-08-31 09:13:00,,0823.4,4.98,0.00,29.9,28.8,00.0,38.9,31.6,11.2,0002.6,0027.76,0022.20,0021.42
2021-08-31 09:14:00,,0823.4,5.01,0.00,29.9,28.9,00.0,38.9,31.7,11.2,0002.6,0027.42,0022.23,0021.48
2021-08-31 09:15:00,,0823.4,5.00,0.00,29.9,28.9,00.0,38.9,31.7,11.3,0002.6,0027.47,0022.27,0021.55
2021-08-31 09:16:00,,0823.4,5.00,0.00,29.9,28.9,00.0,38.9,31.7,11.3,0002.6,0027.61,0022.34,0021.59
2021-08-31 09:17:00,,0823.4,4.99,0.00,30.0,29.0,00.0,38.9,31.8,11.3,0002.6,0027.73,0022.35,0021.60
2021-08-31 09:18:00,,0823.2,5.00,0.00,30.0,28.7,00.0,38.9,31.7,11.3,0002.8,0028.20,0022.35,0021.59
2021-08-31 09:19:00,,0823.2,5.01,0.00,29.9,26.9,00.0,38.9,31.2,11.3,0003.1,0028.19,0022.36,0021.59
2021-08-31 09:20:00,,0823.3,5.00,0.00,29.7,26.1,00.0,38.9,31.0,11.4,0003.3,0028.13,0022.34,0021.55
2021-08-31 09:21:00,,0823.3,4.99,0.00,29.6,26.4,00.0,38.9,31.1,11.5,0003.2,0028.09,0022.32,0021.50
2021-08-31 09:22:00,,0823.2,5.00,0.00,29.6,26.8,00.0,38.8,31.1,11.5,0003.2,0027.87,0022.30,0021.44
2021-08-31 09:23:00,,0823.3,5.00,0.00,29.5,27.2,00.0,38.8,31.1,11.5,0003.1,0028.00,0022.28,0021.39
2021-08-31 09:24:00,,0823.3,5.01,0.00,29.5,27.5,00.0,38.8,31.2,11.4,0003.0,0028.10,0022.24,0021.33
2021-08-31 09:25:00,,0823.2,5.00,0.00,29.5,27.8,00.0,38.7,31.2,11.5,0002.9,0028.16,0022.24,0021.29
2021-08-31 09:26:00,,0823.2,4.99,0.00,29.6,28.0,00.0,38.7,31.3,11.5,0002.9,0028.11,0022.16,0021.24
2021-08-31 09:27:00,,0823.3,5.01,0.00,29.6,28.1,00.0,38.7,31.3,11.5,0002.9,0028.61,0022.06,0021.17
2021-08-31 09:28:00,,0823.2,4.99,0.00,29.6,28.2,00.0,38.7,31.3,11.5,0003.0,0028.87,0022.00,0021.13
2021-08-31 09:29:00,,0823.2,5.01,0.00,29.6,28.3,00.0,38.7,31.3,11.5,0003.0,0028.31,0021.93,0021.07
2021-08-31 09:30:00,,0823.2,5.00,0.00,29.6,28.4,00.0,38.7,31.4,11.5,0002.9,0028.30,0021.89,0021.04
2021-08-31 09:31:00,,0823.3,4.99,0.00,29.7,28.5,00.0,38.7,31.4,11.5,0002.8,0028.27,0021.87,0021.02
2021-08-31 09:32:00,,0823.2,5.01,0.00,29.7,28.5,00.0,38.8,31.4,11.5,0002.9,0027.90,0021.83,0021.02
2021-08-31 09:33:00,,0823.2,5.00,0.00,29.7,28.6,00.0,38.8,31.5,11.5,0002.8,0027.73,0021.82,0021.03
2021-08-31 09:34:00,,0823.3,5.00,0.00,29.7,28.6,00.0,38.8,31.5,11.5,0002.8,0027.51,0021.81,0021.03
2021-08-31 09:35:00,,0823.3,4.99,0.00,29.8,28.7,00.0,38.8,31.5,11.4,0002.9,0027.46,0021.87,0021.09
2021-08-31 09:36:00,,0823.2,5.02,0.00,29.8,28.7,00.0,38.8,31.5,11.3,0002.9,0027.29,0021.87,0021.12
2021-08-31 09:37:00,,0823.2,5.00,0.00,29.8,28.8,00.0,38.8,31.6,11.2,0002.9,0027.24,0021.90,0021.14
2021-08-31 09:38:00,,0823.3,5.00,0.00,29.8,28.8,00.0,38.8,31.6,11.2,0003.0,0027.24,0021.94,0021.20
2021-08-31 09:39:00,,0823.2,4.99,0.00,29.8,28.8,00.0,38.9,31.6,11.2,0002.9,0026.86,0021.97,0021.24
2021-08-31 09:40:00,,0823.3,5.01,0.00,29.9,28.9,00.0,38.9,31.7,11.3,0002.9,0026.87,0022.00,0021.29
2021-08-31 09:41:00,,0823.2,4.99,0.00,29.9,28.9,00.0,38.9,31.7,11.3,0002.8,0026.79,0022.01,0021.33
2021-08-31 09:42:00,,0823.2,4.99,0.00,29.9,28.9,00.0,38.9,31.7,11.3,0002.9,0026.70,0021.99,0021.35
2021-08-31 09:43:00,,0823.2,5.00,0.00,29.9,28.9,00.0,38.9,31.7,11.3,0002.9,0026.65,0021.99,0021.37
2021-08-31 09:44:00,,0823.3,5.00,0.00,30.0,29.0,00.0,39.0,31.7,11.3,0002.9,0026.67,0022.00,0021.39
2021-08-31 09:45:00,,0823.2,5.00,0.00,30.0,29.0,00.0,39.0,31.8,11.3,0002.9,0026.86,0022.01,0021.40
2021-08-31 09:46:00,,0823.2,4.99,0.00,30.0,29.0,00.0,39.0,31.7,11.3,0002.9,0026.80,0021.98,0021.40
2021-08-31 09:47:00,,0823.2,5.01,0.00,29.9,27.5,00.0,39.0,31.3,11.3,0002.8,0027.03,0022.01,0021.40
2021-08-31 09:48:00,,0823.2,5.00,0.00,29.8,26.2,00.0,38.9,31.0,11.4,0002.7,0027.08,0022.04,0021.41
2021-08-31 09:49:00,,0823.2,5.01,0.00,29.7,26.4,00.0,38.9,31.0,11.5,0002.6,0026.95,0022.12,0021.43
2021-08-31 09:50:00,,0823.2,4.99,0.00,29.6,26.7,00.0,38.9,31.0,11.5,0002.6,0027.41,0022.17,0021.44
2021-08-31 09:51:00,,0823.2,5.00,0.00,29.6,27.1,00.0,38.8,31.1,11.6,0002.5,0027.60,0022.17,0021.42
2021-08-31 09:52:00,,0823.1,5.00,0.00,29.6,27.5,00.0,38.8,31.2,11.6,0002.4,0027.59,0022.17,0021.41
2021-08-31 09:53:00,,0823.2,5.00,0.00,29.6,27.7,00.0,38.8,31.2,11.6,0002.3,0027.69,0022.18,0021.40
2021-08-31 09:54:00,,0823.1,4.99,0.00,29.6,27.9,00.0,38.8,31.2,11.5,0002.4,0027.70,0022.19,0021.40
2021-08-31 09:55:00,,0823.2,5.02,0.00,29.6,28.1,00.0,38.8,31.3,11.5,0002.4,0027.61,0022.18,0021.39
2021-08-31 09:56:00,,0823.2,4.99,0.00,29.6,28.2,00.0,38.8,31.3,11.5,0002.7,0027.35,0022.17,0021.41
2021-08-31 09:57:00,,0823.2,5.00,0.00,29.6,28.3,00.0,38.8,31.3,11.6,0002.7,0027.87,0022.16,0021.38
2021-08-31 09:58:00,,0823.2,5.00,0.00,29.7,28.4,00.0,38.8,31.4,11.5,0003.0,0027.82,0022.13,0021.36
2021-08-31 09:59:00,,0823.1,4.99,0.00,29.7,28.4,00.0,38.8,31.4,11.5,0003.0,0027.94,0022.14,0021.36
